Regional Weather Roundup
Issued by NWS Sioux Falls, SD

Home | Current Version | Previous Version | Graphics & Text | Print | Product List | Glossary Off
Versions: 1 2 3 4 5 6 7 8 9 10 11 12 13 14 15 16 17 18 19 20 21 22 23 24 25 26 27 28 29 30 31 32 33 34 35 36 37 38 39 40 41 42 43 44 45 46 47 48 49 50

000
ASUS43 KFSD 280702
RWRFSD

WEATHER ROUNDUP FOR SE SOUTH DAKOTA/SW MINNESOTA/NW IOWA
NATIONAL WEATHER SERVICE SIOUX FALLS SD
200 AM CDT SUN AUG 28 2016

NOTE: "FAIR" INDICATES FEW OR NO CLOUDS BELOW 12,000 FEET WITH NO
SIGNIFICANT WEATHER AND OR OBSTRUCTIONS TO VISIBILITY.


SDZ038>040-050-052>070-280800-
SOUTHEAST SOUTH DAKOTA

CITY           SKY/WX    TMP DP  RH WIND       PRES   REMARKS
BROOKINGS      CLEAR     63  61  93 SE13      30.01F
CHAMBERLAIN    CLEAR     71  65  80 S5        29.96S
HURON          CLEAR     68  64  87 S15G23    29.94F
MADISON        FAIR      64  64 100 S10       30.03F
MITCHELL       CLEAR     68  65  90 SE10      29.98F
SIOUX FALLS    CLEAR     69  65  86 SE9       30.04F
WINNER         FAIR      74  65  73 S13       29.96S
YANKTON        CLEAR     66  63  88 SE6       30.02S
$$

MNZ071-072-080-081-089-090-097-098-280800-
SOUTHWEST MINNESOTA

CITY           SKY/WX    TMP DP  RH WIND       PRES   REMARKS
FAIRMONT       FOG       58  58 100 CALM      30.09S VSB 1/2
JACKSON          N/A     61  57  88 SE3       30.10S FOG
LUVERNE        CLEAR     59  57  94 CALM      30.07S FOG
MARSHALL       PTCLDY    62  61  96 SE8       30.05F
MONTEVIDEO     CLEAR     61  61 100 S9        30.05F
REDWOOD FALLS  CLEAR     62  60  93 S7        30.06S
TRACY          CLEAR     64  62  93 S8        30.07S
WINDOM         CLEAR     63  61  94 SE3       30.09S
WORTHINGTON    CLEAR     59  59 100 SE5       30.09S FOG
$$

IAZ001>003-012>014-020>022-031-032-NEZ013-014-SDZ071-280800-
NORTHWEST IOWA

CITY           SKY/WX    TMP DP  RH WIND       PRES   REMARKS
CHEROKEE       CLEAR     61  61 100 CALM      30.08S FOG
DENISON        FOG       64  64 100 CALM      30.06S VSB 3/4
ESTHERVILLE    FOG       56  56 100 CALM      30.09S VSB 1/4
LE MARS        CLEAR     66  63  88 S6        30.07S
ORANGE CITY    CLEAR     64  63  94 SE6       30.07S
SHELDON        CLEAR     61  61 100 SE5       30.06S
SIOUX CITY     CLEAR     65  62  90 E6        30.06R
SPENCER        PTCLDY    57  56  96 SE5       30.08S
STORM LAKE     CLEAR     63  63 100 SE5       30.09S FOG
$$

ABBREVIATIONS USED IN REMARKS
   TC - TEMPERATURE IN CELSIUS
  WCI - WIND CHILL INDEX
   HX - HEAT INDEX
  VSB - VISIBILITY





USA.gov is the U.S. government's official web portal to all federal, state and local government web resources and services.